Weather History for Adana, Turkey

Change the Weather History Date:

Saturday, March 23, 2013

  Actual Average Record
Temperature  
Mean Temperature 57 °F -  
Max Temperature 66 °F 70 °F 81 °F (2014)
Min Temperature 48 °F 50 °F 41 °F (1997)
Degree Days  
Heating Degree Days 8    
Growing Degree Days 7 (Base 50)    
Moisture  
Dew Point 30 °F    
Average Humidity 40    
Maximum Humidity 88    
Minimum Humidity 18    
Precipitation  
Precipitation 0.00 in 0.08 in - ()
Sea Level Pressure  
Sea Level Pressure 29.66 in    
Wind  
Wind Speed 7 mph ()    
Max Wind Speed 17 mph    
Max Gust Speed -    
Visibility 6.2 miles    
Events      
Averages and records for this station are not official NWS values.
T = Trace of Precipitation, MM = Missing Value Source: Averaged Metar Reports

Daily Weather History Graph

Daily Weather History Graph

Search for Another Location

Airport:

Trip Planner

Search our weather history database for the weather conditions in past years. The results will help you decide how hot, cold, wet, or windy it might be!

Date:

Astronomy

Mar. 23, 2013 Rise Set
Actual Time 5:38 AM EET 5:53 PM EET
Civil Twilight 5:12 AM EET 6:19 PM EET
Nautical Twilight 4:41 AM EET 6:49 PM EET
Astronomical Twilight 4:10 AM EET 7:20 PM EET
Moon 2:03 PM EET (3/23) 2:56 AM EET (3/23)
Length of Visible Light 13h 07m
Length of Day
12h 15m
Waxing Gibbous, 83% of the Moon is Illuminated
Mar 23
Waxing Gibbous
Mar 27
Full
Apr 3
Last Quarter
Apr 10
New
Apr 18
First Quarter

Hourly Weather History & Observations

Time (EET) Temp. Dew Point Humidity Pressure Visibility Wind Dir Wind Speed Gust Speed Precip Events Conditions
12:20 AM 55.4 °F 51.8 °F 88% 29.42 in 6.2 mi SSW 9.2 mph - N/A   Mostly Cloudy
12:50 AM 55.4 °F 51.8 °F 88% 29.44 in 6.2 mi Calm Calm - N/A   Mostly Cloudy
1:20 AM 55.4 °F 51.8 °F 88% 29.44 in 6.2 mi Variable 2.3 mph - N/A   Mostly Cloudy
1:50 AM 53.6 °F 44.6 °F 72% 29.44 in 6.2 mi SW 5.8 mph - N/A   Scattered Clouds
2:20 AM 53.6 °F 42.8 °F 67% 29.47 in 6.2 mi SW 8.1 mph - N/A   Scattered Clouds
2:50 AM 55.4 °F 39.2 °F 54% 29.47 in 6.2 mi SW 9.2 mph - N/A   Scattered Clouds
3:20 AM 53.6 °F 39.2 °F 58% 29.50 in 6.2 mi SSW 5.8 mph - N/A   Scattered Clouds
3:50 AM 53.6 °F 37.4 °F 54% 29.53 in 6.2 mi NNW 2.3 mph - N/A   Mostly Cloudy
4:20 AM 57.2 °F 33.8 °F 41% 29.53 in 6.2 mi West 8.1 mph - N/A   Mostly Cloudy
4:50 AM 51.8 °F 35.6 °F 54% 29.56 in 6.2 mi South 4.6 mph - N/A   Scattered Clouds
5:20 AM 50.0 °F 35.6 °F 58% 29.59 in 6.2 mi SSW 6.9 mph - N/A   Scattered Clouds
5:50 AM 48.2 °F 35.6 °F 62% 29.62 in 6.2 mi SW 8.1 mph - N/A   Mostly Cloudy
6:20 AM 50.0 °F 39.2 °F 66% 29.62 in 6.2 mi WSW 6.9 mph - N/A   Mostly Cloudy
6:50 AM 50.0 °F 39.2 °F 66% 29.65 in 6.2 mi Variable 2.3 mph - N/A   Mostly Cloudy
7:20 AM 51.8 °F 42.8 °F 71% 29.65 in 6.2 mi NE 8.1 mph - N/A   Mostly Cloudy
7:50 AM 55.4 °F 35.6 °F 47% 29.65 in 6.2 mi SSE 5.8 mph - N/A   Mostly Cloudy
8:20 AM 55.4 °F 35.6 °F 47% 29.65 in 6.2 mi ESE 3.5 mph - N/A   Mostly Cloudy
8:50 AM 59.0 °F 30.2 °F 34% 29.68 in 6.2 mi ENE 4.6 mph - N/A   Scattered Clouds
9:20 AM 60.8 °F 32.0 °F 34% 29.65 in 6.2 mi Variable 10.4 mph - N/A   Scattered Clouds
9:50 AM 62.6 °F 32.0 °F 32% 29.65 in 6.2 mi Variable 9.2 mph - N/A   Partly Cloudy
10:20 AM 60.8 °F 24.8 °F 25% 29.65 in 6.2 mi Variable 8.1 mph - N/A   Partly Cloudy
10:50 AM 62.6 °F 24.8 °F 24% 29.65 in 6.2 mi North 6.9 mph - N/A   Partly Cloudy
11:20 AM 64.4 °F 24.8 °F 22% 29.65 in 6.2 mi NW 6.9 mph - N/A   Scattered Clouds
11:50 AM 62.6 °F 21.2 °F 20% 29.68 in 6.2 mi Variable 5.8 mph - N/A   Scattered Clouds
12:20 PM 64.4 °F 24.8 °F 22% 29.68 in 6.2 mi Variable 3.5 mph - N/A   Scattered Clouds
12:50 PM 64.4 °F 24.8 °F 22% 29.68 in 6.2 mi NW 6.9 mph - N/A   Scattered Clouds
1:20 PM 66.2 °F 23.0 °F 19% 29.68 in 6.2 mi NW 8.1 mph - N/A   Mostly Cloudy
1:50 PM 62.6 °F 23.0 °F 22% 29.68 in 6.2 mi NW 12.7 mph - N/A   Mostly Cloudy
2:20 PM 64.4 °F 26.6 °F 24% 29.68 in 6.2 mi WNW 9.2 mph - N/A   Mostly Cloudy
2:50 PM 64.4 °F 23.0 °F 21% 29.68 in 6.2 mi WNW 9.2 mph - N/A   Mostly Cloudy
3:20 PM 64.4 °F 23.0 °F 21% 29.68 in 6.2 mi NW 6.9 mph - N/A   Scattered Clouds
3:50 PM 64.4 °F 19.4 °F 18% 29.68 in 6.2 mi NW 6.9 mph - N/A   Scattered Clouds
4:20 PM 62.6 °F 24.8 °F 24% 29.71 in 6.2 mi NNW 13.8 mph - N/A   Partly Cloudy
4:50 PM 60.8 °F 23.0 °F 23% 29.71 in 6.2 mi NNW 17.3 mph - N/A   Partly Cloudy
5:20 PM 59.0 °F 23.0 °F 25% 29.71 in 6.2 mi North 15.0 mph - N/A   Partly Cloudy
5:50 PM 57.2 °F 24.8 °F 29% 29.74 in 6.2 mi North 11.5 mph - N/A   Partly Cloudy
6:20 PM 57.2 °F 24.8 °F 29% 29.77 in 6.2 mi North 13.8 mph - N/A   Partly Cloudy
6:50 PM 57.2 °F 24.8 °F 29% 29.77 in 6.2 mi North 15.0 mph - N/A   Partly Cloudy
7:20 PM 57.2 °F 24.8 °F 29% 29.77 in 6.2 mi North 13.8 mph - N/A   Partly Cloudy
7:50 PM 55.4 °F 23.0 °F 29% 29.80 in 6.2 mi North 12.7 mph - N/A   Partly Cloudy
8:20 PM 55.4 °F 23.0 °F 29% 29.80 in 6.2 mi North 12.7 mph - N/A   Partly Cloudy
8:50 PM 55.4 °F 23.0 °F 29% 29.80 in 6.2 mi North 13.8 mph - N/A   Partly Cloudy
9:20 PM 55.4 °F 24.8 °F 31% 29.80 in 6.2 mi NNE 12.7 mph - N/A   Partly Cloudy
9:50 PM 55.4 °F 24.8 °F 31% 29.83 in 6.2 mi North 12.7 mph - N/A   Partly Cloudy
10:20 PM 55.4 °F 24.8 °F 31% 29.83 in 6.2 mi North 13.8 mph - N/A   Partly Cloudy
10:50 PM 55.4 °F 26.6 °F 33% 29.83 in 6.2 mi North 12.7 mph - N/A   Partly Cloudy
11:20 PM 53.6 °F 24.8 °F 33% 29.86 in 6.2 mi ENE 5.8 mph - N/A   Partly Cloudy
11:50 PM 51.8 °F 26.6 °F 38% 29.86 in 6.2 mi NE 6.9 mph - N/A   Partly Cloudy